Weather Roundup
Issued by NWS Chicago, IL

Home | Current Version | Previous Version | Graphics & Text | Print | Product List | Glossary On
Versions: 1 2 3 4 5 6 7 8 9 10 11 12 13 14 15 16 17 18 19 20 21 22 23 24 25 26 27 28 29 30 31 32 33 34 35 36 37 38 39 40 41 42 43 44 45 46 47 48 49 50
000
NZUS59 KLOT 030512
HRRLOT

CHICAGO AREA WEATHER ROUNDUP
NATIONAL WEATHER SERVICE CHICAGO/ROMEOVILLE IL
1200 AM CDT WED JUN 03 2015

NOTE: "FAIR" INDICATES FEW OR NO CLOUDS BELOW 12,000 FEET WITH NO
SIGNIFICANT WEATHER AND/OR OBSTRUCTIONS TO VISIBILITY.

* THESE STATIONS ARE NOT UNDER NWS QUALITY CONTROL. THEY ALSO MAY NOT
  REPORT WEATHER SUCH AS PRECIPITATION OR FOG.

ILZ005-006-012>014-019>023-030600-
NORTHEAST ILLINOIS

CITY           SKY/WX    TMP DP  RH WIND       PRES   REMARKS
OHARE          PTCLDY    53  45  74 SE8       30.09S
MIDWAY         MOCLDY    57  45  64 SE5       30.10F
AURORA         CLEAR     57  46  66 E8        30.09R
LANSING*       CLEAR     51  44  77 CALM      30.10F
JOLIET*        CLEAR     57  49  74 E6        30.09F
WAUKEGAN       CLEAR     49  44  83 SE3       30.09S
DUPAGE AIRPORT CLEAR     56  46  69 SE6       30.08S
WHEELING       CLEAR     53  45  74 CALM      30.11R
KANKAKEE*      CLEAR     58  53  83 SE6       30.10S
MORRIS*        CLEAR     58  49  72 E8        30.06F
LEWIS AIRPORT* CLEAR     55  46  71 E8        30.09S
NORTHERLY IS     N/A     52  47  83 CALM        N/A
$$

WIZ051-052-058>065-066-070>072-030600-
SOUTHEAST WISCONSIN

CITY           SKY/WX    TMP DP  RH WIND       PRES   REMARKS
MILWAUKEE      PTCLDY    50  44  80 SE5       30.10S
KENOSHA*       CLEAR     51  43  74 SE6       30.10R
RACINE*        CLEAR     51  42  71 S6        30.11S
BURLINGTON     CLEAR     48  42  82 CALM      30.09S
WAUKESHA       CLEAR     50  43  76 CALM      30.10S
WEST BEND      CLEAR     46  43  87 CALM      30.09S
$$

INZ001>003-010>013-019-020-030600-
NORTHWEST INDIANA

CITY           SKY/WX    TMP DP  RH WIND       PRES   REMARKS
GARY*          CLEAR     51  49  93 CALM      30.10F
MICHIGAN CITY* NOT AVBL
RENSSELAER*    NOT AVBL
VALPARAISO     CLEAR     52  49  89 NE3       30.11S
$$

LMZ740>746-030600-
SOUTHERN LAKE MICHIGAN

STATION/POSITION TIME  SKY/WX   TEMP WIND        PRES    VSBY
                                AIR  DIR/SP/G
                 (UTC)          (F)  (DEG/KT/KT) (MB)    (MI)
HARRISON CRIB    0400            53  150/  6/  8   N/A
BURNHAM HARBOR   0500            52  320/  3/  4   N/A
CALUMET HARBOR   0400            56   70/  4/  7   N/A
BURNS HARBOR     0400                190/  1/  6 1020.0F
MICHIGAN CITY    0400            56   70/  4/  5   N/A
$$

ABBREVIATIONS USED IN REMARKS
   TC - TEMPERATURE IN CELSIUS
  WCI - WIND CHILL INDEX
   HX - HEAT INDEX
  VSB - VISIBILITY
$$


USA.gov is the U.S. government's official web portal to all federal, state and local government web resources and services.